Flag for U.S.A. Weather past 2 weeks in Manassas, Virginia, U.S.A.

Now
63 °F

Scattered clouds.


Feels Like: 63 °F
Forecast: 51 / 66 °F
Wind: 10 mph from Northwest

Location: Manassas Municipal

Current Time: Apr 21, 2015 at 11:41:02 AM

Latest Report: Apr 21, 2015 at 10:55 AM


Visibility: 10 mi

Pressure: 29.80 "Hg

Humidity: 37%

Dew point: 36 °F

Location of ManassasLocation

Historic Weather in Manassas — Graph

°F

Manassas temperature yesterday

Maximum temperature yesterday: 79 °F (at 2:45 PM)
Minimum temperature yesterday: 54 °F (at 12:15 AM)
Average temperature yesterday: 64 °F

Past Weeks' High & Low Weather Summary

 TemperatureHumidityPressure
High81 °F (Apr 18, 3:45 PM)100% (Apr 7, 3:55 AM)30.42 "Hg (Apr 7, 3:55 AM)
Low34 °F (Apr 12, 6:55 AM)17% (Apr 6, 12:45 PM)29.51 "Hg (Apr 20, 8:45 PM)
Average57 °F77%30.09 "Hg
* Reported Apr 6 10:50 AM — Apr 21 9:45 AM, Manassas, Weather by CustomWeather, © 2015

Note: Actual official high and low records may vary slightly from our data, if they occured in-between our weather recording intervals... More about our weather records

Advertising

Manassas weather history for previous 24 hours

 ConditionsComfort  
Time TempWeatherWind HumidityBarometerVisibility
9:45 AM
Tue, Apr 21
61 °FPassing clouds.13 mph34%29.79 "Hg10 mi
8:45 AM59 °FSunny.12 mph42%29.79 "Hg10 mi
6:45 AM55 °FPassing clouds.12 mph55%29.76 "Hg10 mi
6:15 AM55 °FMostly cloudy.15 mph63%29.74 "Hg10 mi
5:55 AM57 °FMostly cloudy.15 mph63%29.73 "Hg10 mi
5:35 AM57 °FOvercast.15 mph63%29.72 "Hg10 mi
5:15 AM57 °FMostly cloudy.17 mph63%29.70 "Hg10 mi
4:55 AM57 °FOvercast.14 mph67%29.69 "Hg10 mi
4:35 AM57 °FMostly cloudy.13 mph67%29.68 "Hg10 mi
4:15 AM57 °FOvercast.15 mph72%29.67 "Hg10 mi
3:55 AM61 °FOvercast.17 mph83%29.66 "Hg8 mi
3:35 AM57 °FMostly cloudy.No wind100%29.64 "Hg10 mi
3:15 AM59 °FOvercast.3 mph100%29.63 "Hg10 mi
2:55 AM59 °FOvercast.No wind100%29.63 "Hg10 mi
2:35 AM57 °FMostly cloudy.5 mph100%29.62 "Hg10 mi
2:15 AM59 °FOvercast.No wind100%29.61 "Hg10 mi
1:55 AM61 °FPassing clouds.No wind88%29.61 "Hg10 mi
1:35 AM61 °FPassing clouds.3 mph83%29.61 "Hg10 mi
1:15 AM61 °FThundershowers. Passing clouds.No wind83%29.61 "Hg10 mi
12:55 AM63 °FThunderstorms. Passing clouds.8 mph77%29.59 "Hg10 mi
12:35 AM64 °FThundershowers. Overcast.13 mph73%29.60 "Hg10 mi
12:15 AM63 °FPartly cloudy.No wind83%29.59 "Hg10 mi
11:35 PM
Mon, Apr 20
63 °FPassing clouds.No wind88%29.56 "Hg10 mi
11:15 PM63 °FPassing clouds.3 mph88%29.56 "Hg10 mi
10:55 PM63 °FPassing clouds.5 mph83%29.55 "Hg10 mi
10:35 PM64 °FPassing clouds.6 mph78%29.55 "Hg10 mi
9:45 PM64 °FClear.8 mph73%29.55 "Hg10 mi
8:45 PM68 °FScattered clouds.6 mph64%29.51 "Hg10 mi
6:45 PM77 °FSunny.7 mph51%29.52 "Hg10 mi
5:50 PM77 °FScattered clouds.10 mph51%29.52 "Hg10 mi
4:45 PM77 °FPassing clouds.7 mph61%29.55 "Hg10 mi
3:45 PM79 °FScattered clouds.12 mph54%29.56 "Hg10 mi
2:45 PM79 °FPartly sunny.8 mph51%29.58 "Hg10 mi
1:50 PM77 °FPassing clouds.13 mph54%29.59 "Hg10 mi
12:45 PM75 °FPartly sunny.13 mph57%29.63 "Hg10 mi
11:50 AM72 °FPassing clouds.8 mph73%29.65 "Hg10 mi
Weather by CustomWeather, © 2015

See weather overviewHow to use our weather pages